Flag for U.S.A. Weather past 2 weeks in Montgomery, Alabama, U.S.A.

Now
72 °F

Scattered clouds.


Feels Like: 67 °F
Forecast: 71 / 81 °F
Wind: 6 mph from South

Location: Maxwell Air Force Base / Montgomery

Current Time: Jul 4, 2015 at 7:43:48 PM

Latest Report: Jul 4, 2015 at 6:58 PM


Visibility: 10 mi

Pressure: 30.06 "Hg

Humidity: 95%

Dew point: 70 °F

Location of MontgomeryLocation

Historic Weather in Montgomery — Graph

°F

Montgomery temperature yesterday

Maximum temperature yesterday: 87 °F (at 4:58 PM)
Minimum temperature yesterday: 72 °F (at 8:58 PM)
Average temperature yesterday: 78 °F

Past Weeks' High & Low Weather Summary

 TemperatureHumidityPressure
High98 °F (Jun 23, 3:58 PM)100% (Jun 26, 8:00 PM)30.16 "Hg (Jun 26, 8:00 PM)
Low66 °F (Jun 29, 5:58 AM)39% (Jun 22, 1:58 PM)29.89 "Hg (Jun 27, 3:58 PM)
Average81 °F76%30.03 "Hg
* Reported Jun 19 5:58 PM — Jul 4 5:59 PM, Montgomery, Weather by CustomWeather, © 2015

Note: Actual official high and low records may vary slightly from our data, if they occured in-between our weather recording intervals... More about our weather records

Advertising

Montgomery weather history for previous 24 hours

 ConditionsComfort  
Time TempWeatherWind HumidityBarometerVisibility
5:59 PM
Sat, Jul 4
72 °FLight rain. Fog.7 mph94%30.06 "Hg6 mi
5:58 PM71 °FThunderstorms. Fog.7 mph96%30.05 "Hg6 mi
5:02 PM79 °FThundershowers. Broken clouds.15 mph79%30.05 "Hg6 mi
3:58 PM90 °FPassing clouds.3 mph51%30.00 "Hg10 mi
2:58 PM89 °FSunny.3 mph56%30.01 "Hg10 mi
1:58 PM87 °FSunny.3 mph62%30.02 "Hg10 mi
12:58 PM86 °FBroken clouds.7 mph62%30.04 "Hg10 mi
11:58 AM86 °FSunny.3 mph66%30.06 "Hg10 mi
10:58 AM84 °FPartly sunny.8 mph73%30.08 "Hg10 mi
10:03 AM82 °FBroken clouds.6 mph79%30.09 "Hg10 mi
8:58 AM81 °FPartly sunny.7 mph86%30.07 "Hg10 mi
7:58 AM76 °FPassing clouds.3 mph94%30.06 "Hg10 mi
6:58 AM74 °FPartly sunny.3 mph96%30.04 "Hg10 mi
5:58 AM73 °FPassing clouds.2 mph93%30.04 "Hg10 mi
4:58 AM73 °FOvercast.2 mph94%30.01 "Hg10 mi
3:58 AM72 °FPassing clouds.3 mph92%30.00 "Hg10 mi
2:58 AM71 °FPassing clouds.3 mph95%30.00 "Hg10 mi
1:58 AM71 °FClear.7 mph95%30.03 "Hg10 mi
12:59 AM72 °FLight rain. Passing clouds.5 mph88%30.05 "Hg8 mi
12:58 AM71 °FThunderstorms. Passing clouds.7 mph91%30.05 "Hg8 mi
11:58 PM
Fri, Jul 3
74 °FOvercast.8 mph91%30.04 "Hg10 mi
10:58 PM73 °FThunderstorms. Overcast.6 mph89%30.02 "Hg10 mi
9:58 PM74 °FPassing clouds.3 mph83%30.01 "Hg10 mi
8:58 PM72 °FClear.No wind83%29.99 "Hg7 mi
7:59 PM73 °FThunderstorms. Scattered clouds.6 mph78%29.98 "Hg10 mi
7:58 PM74 °FThunderstorms. Broken clouds.7 mph77%29.98 "Hg9 mi
Weather by CustomWeather, © 2015

See weather overviewHow to use our weather pages